When you browse on this site, cookies collect data to enhance your experience and personalize the content and advertising you see.
Visit our Privacy Policy to learn more. By continuing to use the site, you agree to this use of cookies and data.
  • In Slovakia
  • List of Countries
  • For 7 days
  • Water Temperature
  • Weather Map
  • Weather Widgets
  • user-avatar
    Login

    Hourly Weather Salta

    Today, 20 November, Wednesday

    Time Temperature Precipitation Wind Pressure Humidity
    00:00 +23°C° 0 mm 2 mps 653 mmHg 62%
    01:00 +21°C° 0 mm 2 mps 652 mmHg 64%
    02:00 +22°C° 0 mm 1 mps 652 mmHg 65%
    03:00 +21°C° 0 mm 1 mps 652 mmHg 65%
    04:00 +21°C° 0 mm 1 mps 651 mmHg 65%
    05:00 +21°C° 0 mm 1 mps 651 mmHg 65%
    06:00 +23°C° 0 mm 1 mps 652 mmHg 57%
    07:00 +26°C° 0 mm 1 mps 653 mmHg 50%
    08:00 +28°C° 0 mm 1 mps 654 mmHg 42%
    09:00 +30°C° 0 mm 2 mps 654 mmHg 38%
    10:00 +31°C° 0 mm 2 mps 654 mmHg 34%
    11:00 +34°C° 0 mm 3 mps 654 mmHg 31%
    12:00 +35°C° 0.1 mm 4 mps 654 mmHg 29%
    13:00 +35°C° 0.1 mm 4 mps 653 mmHg 28%
    14:00 +36°C° 0.1 mm 4 mps 653 mmHg 26%
    15:00 +36°C° 0.3 mm 4 mps 652 mmHg 27%
    16:00 +35°C° 0.3 mm 4 mps 652 mmHg 28%
    17:00 +34°C° 0.3 mm 4 mps 651 mmHg 30%
    18:00 +31°C° 0.1 mm 3 mps 651 mmHg 35%
    19:00 +28°C° 0.1 mm 2 mps 651 mmHg 41%
    20:00 +26°C° 0.1 mm 2 mps 651 mmHg 47%
    21:00 +25°C° 0 mm 1 mps 651 mmHg 47%
    22:00 +25°C° 0 mm 1 mps 651 mmHg 48%
    23:00 +24°C° 0 mm 1 mps 651 mmHg 48%

    Tomorrow, 21 November, Thursday

    Time Temperature Precipitation Wind Pressure Humidity
    00:00 +24°C° 0 mm 1 mps 651 mmHg 50%
    01:00 +24°C° 0 mm 1 mps 650 mmHg 51%
    02:00 +23°C° 0 mm 1 mps 650 mmHg 53%
    03:00 +23°C° 0 mm 1 mps 650 mmHg 54%
    04:00 +22°C° 0 mm 1 mps 650 mmHg 55%
    05:00 +22°C° 0 mm 1 mps 650 mmHg 56%
    06:00 +25°C° 0 mm 1 mps 651 mmHg 50%
    07:00 +27°C° 0 mm 1 mps 652 mmHg 45%
    08:00 +27°C° 0 mm 0 mps 653 mmHg 39%
    09:00 +31°C° 0 mm 1 mps 653 mmHg 36%
    10:00 +32°C° 0 mm 2 mps 654 mmHg 33%
    11:00 +35°C° 0 mm 2 mps 654 mmHg 31%
    12:00 +36°C° 0.1 mm 3 mps 653 mmHg 29%
    13:00 +36°C° 0.1 mm 3 mps 653 mmHg 28%
    14:00 +37°C° 0.1 mm 3 mps 652 mmHg 26%
    15:00 +36°C° 0.3 mm 3 mps 652 mmHg 28%
    16:00 +35°C° 0.3 mm 3 mps 651 mmHg 31%
    17:00 +34°C° 0.3 mm 3 mps 650 mmHg 33%
    18:00 +31°C° 0.9 mm 3 mps 650 mmHg 44%
    19:00 +28°C° 0.9 mm 3 mps 650 mmHg 55%
    20:00 +25°C° 0.9 mm 2 mps 650 mmHg 66%
    21:00 +24°C° 0.3 mm 2 mps 650 mmHg 69%
    22:00 +24°C° 0.3 mm 2 mps 650 mmHg 73%
    23:00 +24°C° 0.3 mm 1 mps 651 mmHg 76%

    Day after tomorrow, 22 November, Friday

    Time Temperature Precipitation Wind Pressure Humidity
    00:00 +23°C° 0 mm 1 mps 650 mmHg 76%
    01:00 +23°C° 0 mm 1 mps 650 mmHg 76%
    02:00 +22°C° 0 mm 1 mps 649 mmHg 76%
    03:00 +22°C° 0.1 mm 1 mps 649 mmHg 76%
    04:00 +22°C° 0.1 mm 1 mps 649 mmHg 76%
    05:00 +22°C° 0.1 mm 1 mps 650 mmHg 76%
    06:00 +24°C° 0.1 mm 1 mps 651 mmHg 68%
    07:00 +26°C° 0.1 mm 1 mps 652 mmHg 60%
    08:00 +29°C° 0.1 mm 1 mps 653 mmHg 52%
    09:00 +30°C° 0.6 mm 1 mps 653 mmHg 46%
    10:00 +32°C° 0.6 mm 2 mps 653 mmHg 41%
    11:00 +35°C° 0.6 mm 3 mps 654 mmHg 36%
    12:00 +34°C° 0.7 mm 3 mps 653 mmHg 36%
    13:00 +34°C° 0.7 mm 4 mps 653 mmHg 36%
    14:00 +34°C° 0.7 mm 5 mps 652 mmHg 36%
    15:00 +32°C° 1 mm 4 mps 651 mmHg 44%
    16:00 +29°C° 1 mm 4 mps 650 mmHg 51%
    17:00 +26°C° 1 mm 3 mps 650 mmHg 59%
    18:00 +25°C° 0.1 mm 2 mps 650 mmHg 63%
    19:00 +24°C° 0.1 mm 2 mps 651 mmHg 66%
    20:00 +23°C° 0.1 mm 1 mps 651 mmHg 70%
    21:00 +22°C° 0.1 mm 1 mps 652 mmHg 70%
    22:00 +22°C° 0.1 mm 1 mps 652 mmHg 71%
    23:00 +22°C° 0.1 mm 1 mps 652 mmHg 72%

    23 November, Saturday

    Time Temperature Precipitation Wind Pressure Humidity
    00:00 +22°C° 0.2 mm 1 mps 652 mmHg 74%
    01:00 +19°C° 0.2 mm 0 mps 652 mmHg 75%
    02:00 +19°C° 0.2 mm 0 mps 651 mmHg 77%
    03:00 +18°C° 0.1 mm 0 mps 651 mmHg 78%
    04:00 +18°C° 0.1 mm 0 mps 651 mmHg 79%
    05:00 +18°C° 0.1 mm 0 mps 651 mmHg 80%
    06:00 +20°C° 0 mm 0 mps 651 mmHg 73%
    07:00 +22°C° 0 mm 0 mps 652 mmHg 66%
    08:00 +26°C° 0 mm 1 mps 653 mmHg 59%
    09:00 +27°C° 0 mm 1 mps 653 mmHg 56%
    10:00 +28°C° 0 mm 2 mps 653 mmHg 52%
    11:00 +30°C° 0 mm 3 mps 653 mmHg 49%
    12:00 +30°C° 0.1 mm 3 mps 652 mmHg 48%
    13:00 +30°C° 0.1 mm 3 mps 651 mmHg 47%
    14:00 +31°C° 0.1 mm 3 mps 651 mmHg 46%
    15:00 +31°C° 0.1 mm 3 mps 650 mmHg 47%
    16:00 +30°C° 0.1 mm 3 mps 649 mmHg 48%
    17:00 +30°C° 0.1 mm 3 mps 648 mmHg 50%
    18:00 +28°C° 0 mm 2 mps 649 mmHg 54%
    19:00 +27°C° 0 mm 2 mps 649 mmHg 59%
    20:00 +26°C° 0 mm 1 mps 649 mmHg 63%
    21:00 +25°C° 0 mm 1 mps 649 mmHg 65%
    22:00 +25°C° 0 mm 1 mps 649 mmHg 66%
    23:00 +25°C° 0 mm 1 mps 649 mmHg 68%

    24 November, Sunday

    Time Temperature Precipitation Wind Pressure Humidity
    00:00 +22°C° 0 mm 0 mps 649 mmHg 70%
    01:00 +22°C° 0 mm 0 mps 648 mmHg 72%
    02:00 +21°C° 0 mm 0 mps 648 mmHg 75%
    03:00 +21°C° 0 mm 0 mps 647 mmHg 75%
    04:00 +20°C° 0 mm 0 mps 647 mmHg 76%
    05:00 +20°C° 0 mm 0 mps 647 mmHg 77%
    06:00 +24°C° 0 mm 1 mps 647 mmHg 70%
    07:00 +26°C° 0 mm 1 mps 648 mmHg 63%
    08:00 +28°C° 0 mm 1 mps 648 mmHg 55%
    09:00 +29°C° 0 mm 2 mps 648 mmHg 51%
    10:00 +31°C° 0 mm 3 mps 649 mmHg 46%
    11:00 +34°C° 0 mm 4 mps 649 mmHg 41%
    12:00 +35°C° 0.1 mm 4 mps 648 mmHg 39%
    13:00 +35°C° 0.1 mm 4 mps 647 mmHg 37%
    14:00 +36°C° 0.1 mm 4 mps 646 mmHg 35%
    15:00 +36°C° 0 mm 4 mps 646 mmHg 35%
    16:00 +36°C° 0 mm 5 mps 645 mmHg 36%
    17:00 +35°C° 0 mm 5 mps 645 mmHg 36%
    18:00 +33°C° 0.1 mm 4 mps 645 mmHg 42%
    19:00 +30°C° 0.1 mm 3 mps 645 mmHg 48%
    20:00 +27°C° 0.1 mm 2 mps 645 mmHg 54%
    21:00 +26°C° 0.1 mm 1 mps 645 mmHg 56%
    22:00 +26°C° 0.1 mm 1 mps 645 mmHg 59%
    23:00 +25°C° 0.1 mm 1 mps 645 mmHg 62%

    25 November, Monday

    Time Temperature Precipitation Wind Pressure Humidity
    00:00 +24°C° 0 mm 1 mps 645 mmHg 63%
    01:00 +24°C° 0 mm 1 mps 644 mmHg 64%
    02:00 +24°C° 0 mm 1 mps 644 mmHg 65%
    03:00 +23°C° 0.2 mm 1 mps 645 mmHg 69%
    04:00 +21°C° 0.2 mm 2 mps 645 mmHg 73%
    05:00 +21°C° 0.2 mm 2 mps 646 mmHg 77%
    06:00 +21°C° 0.3 mm 2 mps 647 mmHg 80%
    07:00 +21°C° 0.3 mm 2 mps 648 mmHg 83%
    08:00 +21°C° 0.3 mm 2 mps 648 mmHg 86%
    09:00 +20°C° 0.7 mm 2 mps 648 mmHg 88%
    10:00 +19°C° 0.7 mm 2 mps 648 mmHg 91%
    11:00 +18°C° 0.7 mm 2 mps 648 mmHg 93%
    12:00 +18°C° 0.3 mm 2 mps 647 mmHg 93%
    13:00 +18°C° 0.3 mm 2 mps 646 mmHg 92%
    14:00 +19°C° 0.3 mm 1 mps 645 mmHg 92%
    15:00 +18°C° 0.2 mm 2 mps 645 mmHg 91%
    16:00 +18°C° 0.2 mm 2 mps 645 mmHg 90%
    17:00 +18°C° 0.2 mm 2 mps 645 mmHg 88%
    18:00 +18°C° 0.1 mm 2 mps 646 mmHg 88%
    19:00 +18°C° 0.1 mm 1 mps 646 mmHg 89%
    20:00 +18°C° 0.1 mm 1 mps 647 mmHg 89%
    21:00 +18°C° 0 mm 1 mps 647 mmHg 88%
    22:00 +18°C° 0 mm 1 mps 648 mmHg 88%
    23:00 +16°C° 0 mm 0 mps 648 mmHg 87%
    Show more